[[{"header":{"parameterUnit":"m.s-1","parameterCategory":1,"la1":30.2991,"la2":30.254,"lo1":-89.0895,"lo2":-89.0444,"dy":0.0017,"dx":0.0017,"nx":28,"ny":28,"refTime":"2025-05-01T09:00:00:Z","depth":0,"parameterNumber":2,"parameterNumberName":"U-component_of_WINDS"},"data":[0,0,0,0,0,0,0,0,0,0,0,0,0,0,0,0,0,0,0,0,0,0,0,0,0,0,0,0,0,0,0,0,0,0,0,0,0,0,0,0,0,0,0,0,0,0,0,0,0,0,0,0,0,0,0,0,0,0,-1.9454,-1.9455,0,-1.9614,-1.9615,-1.9617,-1.9671,-1.9671,-1.967,-1.9669,-1.9835,-1.984,-1.9845,0,0,0,0,0,0,0,0,0,0,0,0,0,-1.9198,-1.9203,-1.9454,-1.9456,-1.9458,-1.9613,-1.9615,-1.9618,-1.9671,-1.9671,-1.967,-1.9669,-1.9833,-1.9839,-1.9845,0,0,0,0,0,0,0,0,0,0,0,0,0,-1.9329,-1.9204,-1.9453,-1.9503,-1.9509,-1.9613,-1.9616,-1.9618,-1.9672,-1.9671,-1.967,-1.9669,-1.9831,-1.9839,-1.9846,-1.9912,0,0,-1.9869,-1.9873,0,0,0,0,0,0,0,0,-1.9321,-1.9338,-1.9494,-1.95,-1.9507,-1.9621,-1.9586,-1.9717,-1.9672,-1.961,-1.9669,-1.9668,-1.9765,-1.9778,-1.981,-1.992,-1.9927,-1.987,-1.9874,-1.9878,-1.988,0,0,0,0,0,0,0,-1.9312,-1.9332,-1.9517,-1.9496,-1.9504,-1.9519,-1.9536,-1.9611,-1.9691,-1.9615,-1.962,-1.9638,-1.9768,-1.9803,-1.9814,-1.993,-1.987,-1.9876,-1.9881,-1.9884,-2.0104,-2.0105,0,0,0,0,0,0,-1.9294,-1.9324,-1.9512,-1.9522,-1.941,-1.9524,-1.9544,-1.9586,-1.969,-1.9705,-1.9638,-1.964,-1.979,-1.9806,-1.982,-1.9906,-1.9878,-1.9885,-1.9889,-2.0103,-2.0104,-2.0106,0,0,0,0,0,0,-1.9289,-1.9311,-1.9505,-1.9424,-1.945,-1.9529,-1.9576,-1.9589,-1.9624,-1.9708,-1.9723,-1.9658,-1.979,-1.981,-1.9889,-1.9912,-1.9888,-1.9895,-2.0101,-2.0103,-2.0105,-2.0075,0,0,0,0,0,0,-1.9281,-1.9308,-1.9333,-1.9424,-1.9454,-1.9571,-1.9578,-1.9593,-1.9636,-1.9639,-1.9731,-1.9745,-1.9791,-1.9878,-1.9897,-1.9922,-1.9901,-2.0099,-2.0102,-2.0104,-2.0075,-2.0076,-2.0077,0,0,0,0,0,-1.9272,-1.9319,-1.9334,-1.9357,-1.9487,-1.9572,-1.9589,-1.964,-1.9638,-1.9664,-1.9719,-1.9742,-1.9907,-1.9885,-1.9907,-1.9935,-2.0098,-2.0101,-2.0104,-2.0074,-2.0076,-2.0077,0,0,0,0,0,0,-1.9229,-1.9332,-1.935,-1.9427,-1.949,-1.9581,-1.9615,-1.964,-1.9706,-1.9706,-1.9768,-1.9788,-1.9863,-1.9907,-1.9882,-2.0006,-2.0004,-2.0011,-1.9973,-1.9976,-1.9977,-1.9965,-1.9907,0,0,0,0,0,-1.9229,-1.9288,-1.9375,-1.9435,-1.9466,-1.9535,-1.9574,-1.9608,-1.9676,-1.9703,-1.9763,-1.9829,-1.9896,-1.9939,-2.0005,-2.0082,-2.0103,-2.0112,-2.0113,-2.0114,-2.0119,-2.0165,-2.017,-2.0116,-2.0116,-2.0115,0,0,-1.9228,-1.9292,-1.9326,-1.9428,-1.9481,-1.9542,-1.9557,-1.9621,-1.9667,-1.9713,-1.9792,-1.9838,-1.9916,-1.9995,-2.0033,-2.0034,-2.0139,-2.0118,-2.0118,-2.0123,-2.0168,-2.0173,-2.0178,-2.0118,-2.0117,-2.0117,0,0,-1.9259,-1.9313,-1.9369,-1.9422,-1.9502,-1.9548,-1.9561,-1.9648,-1.9681,-1.976,-1.9797,-1.9853,-1.9967,-2.0021,-2.0063,-2.0116,-2.014,-2.0136,-2.0143,-2.0186,-2.019,-2.0194,-2.0214,-2.022,-2.0142,-2.0141,-2.0141,0,-1.9249,-1.9342,-1.9395,-1.9457,-1.9502,-1.9546,-1.9604,-1.9653,-1.9751,-1.9781,-1.9781,-1.9925,-1.9981,-2.0073,-2.0086,-2.0119,-2.0137,-2.0125,-2.0185,-2.019,-2.0195,-2.0214,-2.0221,-2.014,-2.0141,-2.0141,-2.0141,0,-1.9325,-1.9389,-1.9425,-1.9518,-1.9567,-1.9626,-1.969,-1.9733,-1.9764,-1.981,-1.9892,-1.996,-2.0041,-2.0066,-2.0096,-2.0164,-2.0162,-2.0173,-2.0172,-2.0198,-2.0217,-2.0224,-2.0139,-2.0139,-2.014,-2.014,0,0,-1.9333,-1.9454,-1.9467,-1.951,-1.9601,-1.9652,-1.9715,-1.9794,-1.983,-1.9896,-1.9951,-2.0047,-2.0058,-2.0106,-2.0143,-2.0181,-2.0219,-2.0188,-2.0191,-2.0191,-2.0298,-2.0289,-2.0297,-2.0236,-2.0238,-2.0239,-2.0292,0,-1.9375,-1.9488,-1.9538,-1.9629,-1.9689,-1.9733,-1.9787,-1.985,-1.9896,-1.9955,-2.0005,-2.0072,-2.0082,-2.0111,-2.0151,-2.0206,-2.0242,-2.0203,-2.0289,-2.0291,-2.0267,-2.0307,-2.0297,-2.0343,-2.03,-2.0301,-2.0302,0,-1.944,-1.9505,-1.9601,-1.9686,-1.9714,-1.9762,-1.9839,-1.9894,-1.9967,-1.9998,-2.0052,-2.0088,-2.0157,-2.0152,-2.0248,-2.0221,-2.0259,-2.0292,-2.0295,-2.0305,-2.0297,-2.0317,-2.0359,-2.0366,-2.0314,-2.0313,-2.0312,0,-1.9435,-1.9548,-1.962,-1.9655,-1.9757,-1.979,-1.9834,-1.9906,-1.995,-2.0018,-2.0048,-2.0123,-2.0164,-2.0222,-2.0278,-2.0269,-2.0369,-2.0369,-2.0397,-2.0395,-2.0415,-2.0413,-2.0464,-2.044,-2.044,-2.044,-2.044,0,-1.9478,-1.9534,-1.962,-1.9664,-1.973,-1.9788,-1.9852,-1.9899,-1.9963,-2.0019,-2.0062,-2.0113,-2.0183,-2.0244,-2.0288,-2.0362,-2.038,-2.0408,-2.0419,-2.0404,-2.04,-2.0429,-2.0427,-2.0442,-2.0442,-2.0441,-2.0441,0,-1.9484,-1.9543,-1.9624,-1.9714,-1.9738,-1.9782,-1.9859,-1.9905,-1.9953,-2.0022,-2.0042,-2.0118,-2.0191,-2.0253,-2.035,-2.038,-2.0456,-2.0469,-2.0431,-2.0437,-2.0462,-2.0459,-2.0533,-2.0545,-2.0513,-2.0513,-2.0513,0,-1.9506,-1.9551,-1.9645,-1.9685,-1.9728,-1.9792,-1.9837,-1.9897,-1.9943,-2.003,-2.0065,-2.0142,-2.0206,-2.0322,-2.0387,-2.0462,-2.0477,-2.0498,-2.0488,-2.0472,-2.0477,-2.0474,-2.0479,-2.0498,-2.0498,-2.0498,-2.0498,0,-1.9541,-1.9568,-1.9631,-1.9705,-1.9758,-1.982,-1.9882,-1.9913,-1.9985,-2.0034,-2.011,-2.016,-2.0259,-2.0335,-2.0416,-2.0463,-2.0493,-2.0501,-2.0511,-2.0496,-2.0472,-2.0486,-2.0433,-2.0498,-2.0498,-2.0498,-2.0498,-2.0498,-1.9556,-1.9598,-1.9671,-1.9741,-1.9794,-1.9852,-1.9899,-1.9953,-2.0016,-2.0101,-2.0133,-2.021,-2.0284,-2.0397,-2.0444,-2.0507,-2.051,-2.0525,-2.0529,-2.0532,-2.053,-2.0462,-2.0522,-2.0522,-2.0522,-2.0522,-2.0522,0,-1.9593,-1.9642,-1.9705,-1.9791,-1.9846,-1.9869,-1.994,-1.9985,-2.0052,-2.0117,-2.018,-2.0267,-2.0341,-2.0412,-2.049,-2.0526,-2.0542,-2.0545,-2.0543,-2.0553,-2.0522,-2.0505,-2.0531,-2.0531,-2.0531,-2.0531,-2.0531,-2.0531,-1.9619,-1.9691,-1.9727,-1.9827,-1.9877,-1.9952,-1.999,-2.0044,-2.0097,-2.0192,-2.0254,-2.0299,-2.0367,-2.045,-2.052,-2.0539,-2.0566,-2.0565,-2.0588,-2.0557,-2.0555,-2.0554,-2.0538,-2.057,-2.057,-2.0614,-2.0614,-2.0614]},{"header":{"parameterUnit":"m.s-1","parameterCategory":1,"la1":30.2991,"la2":30.254,"lo1":-89.0895,"lo2":-89.0444,"dy":0.0017,"dx":0.0017,"nx":28,"ny":28,"refTime":"2025-05-01T09:00:00:Z","depth":0,"parameterNumber":3,"parameterNumberName":"V-component_of_WINDS"},"data":[0,0,0,0,0,0,0,0,0,0,0,0,0,0,0,0,0,0,0,0,0,0,0,0,0,0,0,0,0,0,0,0,0,0,0,0,0,0,0,0,0,0,0,0,0,0,0,0,0,0,0,0,0,0,0,0,0,0,5.4748,5.4748,0,5.4753,5.4754,5.4754,5.4675,5.4673,5.4671,5.4669,5.4673,5.4675,5.4677,0,0,0,0,0,0,0,0,0,0,0,0,0,5.4668,5.467,5.4748,5.4748,5.4748,5.4753,5.4754,5.4754,5.4675,5.4673,5.467,5.4668,5.4672,5.4675,5.4677,0,0,0,0,0,0,0,0,0,0,0,0,0,5.4691,5.4671,5.4748,5.471,5.4706,5.4753,5.4754,5.4754,5.4676,5.4673,5.4669,5.4666,5.4671,5.4675,5.4678,5.4761,0,0,5.4687,5.4689,0,0,0,0,0,0,0,0,5.469,5.4694,5.4715,5.4712,5.4709,5.471,5.4727,5.4756,5.4677,5.4687,5.4668,5.4665,5.4688,5.469,5.4697,5.4762,5.4762,5.4688,5.469,5.4691,5.4692,0,0,0,0,0,0,0,5.4689,5.4694,5.475,5.4716,5.4712,5.4692,5.4691,5.4732,5.4705,5.4686,5.468,5.4682,5.4685,5.4695,5.4697,5.4762,5.4688,5.469,5.4692,5.4694,5.4893,5.4896,0,0,0,0,0,0,5.4692,5.4693,5.475,5.475,5.4691,5.4696,5.4695,5.4713,5.4705,5.4701,5.4685,5.4679,5.4691,5.4693,5.4697,5.4792,5.4691,5.4694,5.4696,5.4889,5.4893,5.4897,0,0,0,0,0,0,5.4691,5.4698,5.475,5.472,5.4725,5.4701,5.4721,5.4715,5.4724,5.4704,5.4699,5.4699,5.4688,5.4692,5.4745,5.4791,5.4695,5.4698,5.4885,5.4891,5.4895,5.4985,0,0,0,0,0,0,5.4689,5.4698,5.473,5.4721,5.4727,5.4799,5.4724,5.4717,5.473,5.4721,5.4716,5.4712,5.4686,5.4741,5.4749,5.4794,5.4701,5.4881,5.4888,5.4894,5.4978,5.4992,5.5005,0,0,0,0,0,5.4686,5.4755,5.4732,5.4739,5.4766,5.4802,5.4805,5.4774,5.4734,5.4765,5.4752,5.4712,5.4786,5.4747,5.4755,5.4802,5.4878,5.4886,5.4893,5.4972,5.499,5.5005,0,0,0,0,0,0,5.477,5.4753,5.4727,5.4796,5.4801,5.4788,5.4827,5.4794,5.4811,5.4802,5.4763,5.4762,5.4821,5.4817,5.4775,5.4882,5.4825,5.4834,5.4882,5.4898,5.4912,5.491,5.4703,0,0,0,0,0,5.4796,5.4827,5.4811,5.4873,5.4876,5.4852,5.4866,5.4842,5.4845,5.4847,5.4838,5.4842,5.4866,5.4882,5.4904,5.4978,5.4974,5.5014,5.5028,5.5039,5.5047,5.5083,5.51,5.4922,5.4922,5.4922,0,0,5.4851,5.4846,5.4867,5.4889,5.489,5.4922,5.4854,5.4891,5.4913,5.4852,5.4901,5.4895,5.4897,5.4961,5.4988,5.4959,5.5096,5.5049,5.5058,5.5059,5.5093,5.511,5.5125,5.4927,5.4926,5.4926,0,0,5.4966,5.4966,5.5016,5.5019,5.5021,5.5004,5.5017,5.5009,5.5003,5.5052,5.5006,5.5033,5.5075,5.5078,5.5085,5.5202,5.5164,5.521,5.528,5.5316,5.533,5.5343,5.5382,5.5396,5.5218,5.5218,5.5219,0,5.5033,5.5079,5.5047,5.5086,5.5096,5.5043,5.5093,5.5097,5.5106,5.5114,5.5082,5.5133,5.5131,5.5193,5.5222,5.523,5.5242,5.5209,5.5331,5.5343,5.5354,5.5391,5.5406,5.5224,5.5223,5.5223,5.5222,0,5.516,5.5193,5.5234,5.5243,5.5258,5.5303,5.5276,5.5296,5.5271,5.5257,5.5306,5.5303,5.5321,5.5335,5.5311,5.5394,5.5375,5.5338,5.5279,5.5377,5.541,5.5424,5.5231,5.5229,5.5228,5.5226,0,0,5.5326,5.5318,5.5333,5.5336,5.5335,5.5359,5.5401,5.5419,5.5435,5.5444,5.5477,5.5514,5.548,5.5488,5.5464,5.5497,5.5586,5.5455,5.5454,5.5477,5.5674,5.57,5.5717,5.5563,5.5565,5.5568,5.5673,0,5.5436,5.5507,5.5478,5.5551,5.558,5.553,5.5566,5.5569,5.5558,5.558,5.5568,5.5594,5.5547,5.5551,5.5582,5.5569,5.5625,5.5561,5.5591,5.5593,5.5589,5.5735,5.5763,5.5863,5.5686,5.5689,5.569,0,5.5573,5.5586,5.5662,5.5654,5.5665,5.5699,5.5712,5.5735,5.5737,5.5726,5.5736,5.5704,5.5744,5.5688,5.5741,5.5699,5.571,5.5706,5.5709,5.5708,5.5645,5.5736,5.5894,5.5908,5.5711,5.571,5.5708,0,5.5683,5.572,5.577,5.5774,5.5768,5.5792,5.579,5.5789,5.5801,5.5814,5.5821,5.5838,5.5847,5.5861,5.5835,5.5797,5.5891,5.5834,5.5882,5.5883,5.5901,5.59,5.6061,5.5914,5.5914,5.5913,5.5913,0,5.5806,5.5854,5.5819,5.5849,5.59,5.5868,5.5919,5.5912,5.5912,5.5939,5.5898,5.5925,5.589,5.5913,5.5894,5.5939,5.5945,5.5936,5.5929,5.5938,5.5939,5.5942,5.5934,5.5917,5.5916,5.5916,5.5915,0,5.5937,5.5916,5.5965,5.5955,5.5954,5.5992,5.5982,5.601,5.5996,5.6031,5.6037,5.6015,5.604,5.6016,5.604,5.6027,5.6088,5.6073,5.6087,5.6081,5.613,5.6125,5.6297,5.6316,5.6159,5.6161,5.6162,0,5.6016,5.6051,5.6044,5.6059,5.606,5.6086,5.6098,5.6067,5.6082,5.6087,5.6113,5.6134,5.6149,5.6192,5.6178,5.6195,5.6179,5.6238,5.6181,5.6188,5.6176,5.6173,5.6176,5.6248,5.625,5.6252,5.6253,0,5.6157,5.6144,5.6164,5.6179,5.6195,5.6206,5.6214,5.6229,5.6197,5.6215,5.624,5.6252,5.6276,5.6297,5.6311,5.6308,5.6275,5.6272,5.6283,5.6291,5.6296,5.6291,5.6115,5.6267,5.6266,5.6265,5.6264,5.6263,5.6262,5.629,5.6289,5.6312,5.6314,5.6322,5.6347,5.6336,5.6356,5.6373,5.6354,5.6384,5.6385,5.6399,5.6401,5.6423,5.6398,5.6416,5.642,5.6424,5.643,5.6295,5.6426,5.6426,5.6425,5.6425,5.6425,0,5.6399,5.6396,5.6417,5.6428,5.6446,5.6414,5.6421,5.6438,5.6464,5.6468,5.6484,5.6512,5.6532,5.652,5.6537,5.6558,5.6543,5.6563,5.656,5.6559,5.6453,5.6439,5.6575,5.6575,5.6575,5.6575,5.6575,5.6575,5.6472,5.6517,5.6504,5.655,5.6547,5.6576,5.6582,5.6589,5.6591,5.6624,5.6641,5.6633,5.663,5.6647,5.6664,5.666,5.6667,5.6692,5.6682,5.6582,5.6567,5.6553,5.654,5.6695,5.6695,5.6787,5.6788,5.6788]}]]